Other Public Products
Issued by NWS Grand Forks, ND

Home | Current Version | Previous Version | Graphics & Text | Print | Product List | Glossary On
Versions: 1 2 3 4 5 6 7 8 9 10 11 12 13 14 15 16 17 18 19 20 21 22 23 24 25 26 27 28 29 30 31 32 33 34 35 36 37 38 39 40 41 42 43 44 45 46 47 48 49 50
000
FPUS83 KFGF 010610
OPUFGF
PRAIRIE TO PINES WEATHER ROUNDUP
NATIONAL WEATHER SERVICE EASTERN NORTH DAKOTA/GRAND FORKS ND
1200 AM CST SUN MAR 01 2015

 **SATELLITE DATA USED TO AUGMENT SKY COVER AT AUTOMATED STATIONS**
 *****  WEATHER ACROSS EASTERN NORTH DAKOTA  *****

CITY           SKY/WX    TMP DP  RH WIND       PRES   REMARKS
GRAND FORKS    CLEAR      4  -3  73 W8        30.16F WCI  -9
6HR MIN TEMP:   4; 6HR MAX TEMP:  21; 6HR PCP: TRACE;

GRAND FORKS AF CLEAR      4  -3  74 W6        30.16S WCI  -7
GRAND CITY NWS   N/A      3 N/A N/A W6          N/A  WCI  -8
BUXTON         NOT AVBL
DEVILS LAKE    CLEAR      1  -6  71 W10       30.12F WCI -14
6HR MIN TEMP:   1; 6HR MAX TEMP:   9;

FARGO          CLEAR      6  -1  73 SW8       30.21S WCI  -7
6HR MIN TEMP:   6; 6HR MAX TEMP:  25; 6HR PCP:  0.01;

WAHPETON ARPT  PTCLDY     7   1  78 W7        30.23F WCI  -5
$$

 *****  WEATHER ACROSS CENTRAL AND WESTERN NORTH DAKOTA  *****

CITY           SKY/WX    TMP DP  RH WIND       PRES   REMARKS
JAMESTOWN      CLEAR      1  -4  79 W8        30.17F WCI -13
6HR MIN TEMP:   1; 6HR MAX TEMP:  14;

BISMARCK       CLEAR      5   0  79 W6        30.21S WCI  -6
6HR MIN TEMP:   4; 6HR MAX TEMP:  17;

MINOT          CLEAR      4  -3  73 SW12      30.11F WCI -12
6HR MIN TEMP:   1; 6HR MAX TEMP:  10;

MINOT AFB      CLEAR      0  -5  80 SW12      30.11F WCI -17
6HR MIN TEMP:  -2; 6HR MAX TEMP:   8;

GARRISON         N/A     -1  -6  79 W6        30.14F WCI -13
6HR MIN TEMP:  -4; 6HR MAX TEMP:  11;

WILLISTON      CLOUDY     8   1  73 S5        30.14F WCI   0
6HR MIN TEMP:  -1; 6HR MAX TEMP:  15;

DICKINSON      CLEAR      8   2  76 W12       30.12S WCI  -7
6HR MIN TEMP:   3; 6HR MAX TEMP:  17;

HETTINGER      PTCLDY     3  -1  83 W3        30.17S
6HR MIN TEMP:   3; 6HR MAX TEMP:  18;

$$

 *****  OTHER OBSERVATIONS NORTHEAST NORTH DAKOTA  *****

CITY           SKY/WX    TMP DP  RH WIND       PRES   REMARKS
WALHALLA         N/A      5   0  78 W13G21    30.10F WCI -12
LANGDON        NOT AVBL
CAVALIER       FAIR       7   0  72 W13       30.11F WCI  -9
GRAFTON        NOT AVBL
CANDO          FAIR       0  -4  85 W12       30.11F WCI -18
FORT TOTTEN    NOT AVBL
ROLLA          FAIR       3   0  85 W14       30.06F WCI -15
RUGBY          FAIR      -2  -8  78 SW10      30.12F WCI -19
 ***** THE ABOVE OBSERVATIONS ARE NON NWS ARE NOT QUALITY
        CONTROLLED AND MAY MIS-REPORT RAIN FOR SNOW...
$$

 *****  OTHER OBSERVATIONS SOUTHEAST NORTH DAKOTA *****

CITY           SKY/WX    TMP DP  RH WIND       PRES   REMARKS
COOPERSTOWN    NOT AVBL
VALLEY CITY    FAIR       3   0  85 W14       30.17F WCI -15
OAKES            N/A      3   0  85 SW8       30.21S WCI -10
GWINNER        CLEAR      9   1  72 W8        30.22R WCI  -4
BUFFALO        NOT AVBL
WYNDMERE         N/A      7   0  72 W6          N/A  WCI  -3
 ***** THE ABOVE OBSERVATIONS ARE NON NWS ARE NOT QUALITY
       CONTROLLED AND MAY MIS-REPORT RAIN FOR SNOW...
$$

  *****  WEATHER ACROSS NORTHERN MINNESOTA  *****

CITY           SKY/WX    TMP DP  RH WIND       PRES   REMARKS
FLAG ISLAND    LGT SNOW  14  10  85 W7        30.04R WCI   4
WARROAD        MOCLDY     9   3  78 W10       30.07S WCI  -6
ROSEAU         MOCLDY     9   1  72 SW8       30.09S WCI  -4
HALLOCK        CLEAR      1  -4  78 SW5       30.12F WCI  -8
THF RVR FALLS  PTCLDY     3  -2  78 SW7       30.13S WCI  -9
6HR MIN TEMP:   3; 6HR MAX TEMP:  21;

HALSTAD        NOT AVBL
FOSSTON        PTCLDY     1  -2  85 SW6       30.14F WCI -10
BAUDETTE       LGT SNOW  17  13  84 W12       30.04F FOG     WCI   4
6HR MIN TEMP:  17; 6HR MAX TEMP:  22; 6HR PCP: TRACE;

WASKISH        LGT SNOW  18  14  86 SW9       30.09S WCI   6
CROOKSTON      CLEAR      3   0  85 W7        30.17F WCI  -9
$$
  *****  WEATHER ACROSS CENTRAL AND WEST MINNESOTA  *****

CITY           SKY/WX    TMP DP  RH WIND       PRES   REMARKS
BEMIDJI        LGT SNOW  17  14  89 SW6       30.10S WCI   8
PARK RAPIDS    LGT SNOW  17  13  84 S12       30.11F FOG     WCI   4
6HR MIN TEMP:  16; 6HR MAX TEMP:  19; 6HR PCP: TRACE;

WADENA         FLURRIES  16  12  86 SW9       30.14S WCI   4
DETROIT LAKES  FLURRIES  12   7  79 W8        30.17S WCI   1
MOORHEAD       CLEAR      7   3  85 SW7       30.22S WCI  -5
FERGUS FALLS   FLURRIES  12   7  79 NW12      30.24S WCI  -2
ELBOW LAKE     FLURRIES  15  10  82 NW14      30.19R WCI   0
6HR MIN TEMP:  15; 6HR MAX TEMP:  20;

MORRIS MN      FLURRIES  19  16  86 NW17      30.19S WCI   4
STAPLES        FLURRIES  16  12  86 S9        30.15F WCI   4
WHEATON        NOT AVBL
$$
  *****  WEATHER ELSEWHERE ACROSS MINNESOTA  *****

CITY           SKY/WX    TMP DP  RH WIND       PRES   REMARKS
DULUTH         MOCLDY    11   2  67 SW15      30.17F WCI  -5
6HR MIN TEMP:  11; 6HR MAX TEMP:  18;

INTRNTL FALLS  LGT SNOW  17  11  77 SW13G18   30.06F WCI   4
6HR MIN TEMP:  17; 6HR MAX TEMP:  22; 6HR PCP:  0.01;

ELY            CLOUDY    12   7  79 S9        30.12F WCI   0
CLOQUET        CLOUDY    10   1  67 S9        30.19F WCI  -2
BRAINERD       CLOUDY    13   9  84 S10       30.18F WCI   0
6HR MIN TEMP:  12; 6HR MAX TEMP:  17; 6HR PCP: TRACE;

HIBBING        CLOUDY    14   5  67 S10G16    30.14F WCI   1
6HR MIN TEMP:  13; 6HR MAX TEMP:  20; 6HR PCP: TRACE;

ALEXANDRIA     CLOUDY    16  12  84 SW12      30.16F WCI   3
6HR MIN TEMP:  16; 6HR MAX TEMP:  19; 6HR PCP: TRACE;

SAINT CLOUD    CLOUDY    13   8  81 S10       30.23F WCI   0
6HR MIN TEMP:  12; 6HR MAX TEMP:  18;

MINNEAPOLIS    MOCLDY    14   6  70 S9        30.30F WCI   2
6HR MIN TEMP:  12; 6HR MAX TEMP:  14;

$$

  *****  WEATHER ACROSS SOUTH DAKOTA  *****

CITY           SKY/WX    TMP DP  RH WIND       PRES   REMARKS
SIOUX FALLS    CLEAR     17  11  77 SW8       30.23S WCI   7
6HR MIN TEMP:  17; 6HR MAX TEMP:  27;

BROOKINGS      NOT AVBL
WATERTOWN      PTCLDY    13   5  70 NW6       30.18S WCI   4
6HR MIN TEMP:  14; 6HR MAX TEMP:  23;

HURON          CLEAR      8   4  83 NW9       30.26R WCI  -5
6HR MIN TEMP:   8; 6HR MAX TEMP:  29;

SISSETON         N/A     10   3  73 NW10      30.22S WCI  -4
ABERDEEN       PTCLDY     4   0  83 CALM      30.25S
6HR MIN TEMP:   2; 6HR MAX TEMP:  26;

MITCHELL       CLEAR     14  10  84 NW9       30.27R WCI   2
PIERRE         PTCLDY     7   1  76 W6        30.25R WCI  -3
6HR MIN TEMP:   6; 6HR MAX TEMP:  27;

MOBRIDGE       CLEAR      7   2  80 CALM      30.19S
RAPID CITY     CLOUDY    10   6  84 W3        30.18S
6HR MIN TEMP:  10; 6HR MAX TEMP:  21;

$$

  *****  SOME WEATHER IN NEARBY STATES *****

CITY           SKY/WX    TMP DP  RH WIND       PRES   REMARKS
GLASGOW MT     FLURRIES  18  13  80 W8        30.16R WCI   8
6HR MIN TEMP:  18; 6HR MAX TEMP:  23; 6HR PCP: TRACE;

GREAT FALLS MT PTCLDY    12   7  80 SW10      30.21R WCI  -1
6HR MIN TEMP:  11; 6HR MAX TEMP:  24;

CHEYENNE WY    LGT SNOW  17  13  84 CALM      29.96R FOG
6HR MIN TEMP:  17; 6HR MAX TEMP:  20; 6HR PCP: TRACE;

SCOTTSBLUFF NE CLOUDY    23  14  68 NE9       30.09S WCI  13
6HR MIN TEMP:  21; 6HR MAX TEMP:  31;

OMAHA NE       FLURRIES  23  15  71 SW8       30.36S WCI  14
6HR MIN TEMP:  23; 6HR MAX TEMP:  23; 6HR PCP: TRACE;

DES MOINES IA  FLURRIES  21  16  81 SE7       30.37F WCI  12
6HR MIN TEMP:  20; 6HR MAX TEMP:  22; 6HR PCP: TRACE;

DAVENPORT IA   PTCLDY    12   8  84 SE5       30.42F FOG     WCI   4
6HR MIN TEMP:   7; 6HR MAX TEMP:  15; 6HR PCP: TRACE;

CHICAGO IL     LGT SNOW  18  14  84 S6        30.45F FOG     WCI  10
6HR MIN TEMP:  16; 6HR MAX TEMP:  20; 6HR PCP:  0.02;

EAU CLAIRE WI  CLOUDY    14   1  56 S8        30.34F WCI   3
6HR MIN TEMP:  11; 6HR MAX TEMP:  16;

LA CROSSE WI   CLOUDY    14   1  56 S7        30.42S WCI   4
6HR MIN TEMP:  13; 6HR MAX TEMP:  18;

$$

  *****  SOME NATIONAL WEATHER *****

CITY           SKY/WX    TMP DP  RH WIND       PRES   REMARKS
LA GUARDIA NY  PTCLDY    26   2  35 CALM      30.72F


USA.gov is the U.S. government's official web portal to all federal, state and local government web resources and services.